Regional Weather Roundup
Issued by NWS Midland/Odessa, TX

Home | Current Version | Previous Version | Text Only | Print | Product List | Glossary On
Versions: 1 2 3 4 5 6 7 8 9 10 11 12 13 14 15 16 17 18 19 20 21 22 23 24 25 26 27 28 29 30 31 32 33 34 35 36 37 38 39 40 41 42 43 44 45 46 47 48 49 50
000
ASUS44 KMAF 191210
RWRMAF
MIDLAND AREA WEATHER ROUNDUP
NATIONAL WEATHER SERVICE MIDLAND TX
600 AM CST SUN NOV 19 2017

...IN SOUTHWEST TEXAS AND SOUTHEAST NEW MEXICO...

CITY           SKY/WX    TMP DP  RH WIND       PRES   REMARKS
ALPINE         CLOUDY    32  17  52 E3        30.39R
ANDREWS        FAIR      30  22  71 CALM      30.35S
ARTESIA        CLOUDY    28  18  64 SW6       30.33F WCI  22
BIG SPRING     CLOUDY    30  24  78 S5        30.38S WCI  25
CARLSBAD       CLOUDY    30  20  66 S5        30.33S WCI  25
DRYDEN           N/A     41  25  53 N7        30.35R WCI  36
FORT STOCKTON  CLOUDY    37  21  52 S8        30.35S WCI  31
GUAD PASS      CLOUDY    35  14  42 NE26      30.30F WCI  22
HOBBS          CLOUDY    28  16  59 CALM      30.34S
LAMESA         FAIR      28  19  69 NW6       30.35F WCI  22
MARFA          NOT AVBL
MIDLAND AIRPK  CLOUDY    33  24  70 CALM      30.37S
MIDLAND INTL   CLOUDY    29  21  72 NW3       30.35S
ODESSA         CLOUDY    29  20  69 N5        30.35S WCI  24
PECOS          CLOUDY    30  19  63 CALM      30.36S
PRESIDIO       FAIR      50  21  32 NE6       30.33R
SEMINOLE       CLEAR     25  19  77 W3        30.35S
SNYDER         CLOUDY    34  21  60 N3        30.35S
WINK           CLOUDY    28  19  69 W5        30.34S WCI  23
$$
...OTHER STATIONS IN TEXAS...

CITY           SKY/WX    TMP DP  RH WIND       PRES   REMARKS
ABILENE        CLEAR     36  32  85 CALM      30.35S
AMARILLO       CLOUDY    26  14  60 SW12      30.31R WCI  16
AUSTIN         CLEAR     46  35  65 NW8       30.33R
BROWNSVILLE    CLOUDY    61  43  51 N18G24    30.22R
CORPUS CHRISTI CLEAR     53  37  54 N20G25    30.27R
DALLAS FTW     CLEAR     43  34  70 NW8       30.31R WCI  38
DEL RIO        PTCLDY    39  34  82 CALM      30.37R
EL PASO        PTCLDY    41  23  48 NE6       30.28S WCI  37
HOUSTON INT    CLEAR     49  37  63 N10       30.27R
LUBBOCK        CLOUDY    24  14  65 W7        30.33S WCI  16
SAN ANGELO     CLEAR     32  28  85 W6        30.37R WCI  26
SAN ANTONIO    CLEAR     44  32  62 NW7       30.34R
WACO           CLEAR     42  34  73 NW8       30.33R WCI  37
WICHITA FALLS  CLEAR     28  22  78 CALM      30.28R
$$
...OTHER LOCATIONS IN NEW MEXICO...

CITY           SKY/WX    TMP DP  RH WIND       PRES   REMARKS
ALAMOGORDO     CLOUDY    36  16  44 NE10      30.31S WCI  28
ALBUQUERQUE    CLOUDY    31   8  38 N9        30.32F WCI  23
CANNON AFB     CLOUDY    32  12  43 W7        30.33S WCI  25
CLOVIS         CLOUDY    24  14  65 W7        30.32F WCI  16
HOLLOMAN AFB   CLOUDY    30  15  52 CALM      30.33S
ROSWELL        CLOUDY    28  16  60 S5        30.32F WCI  23
RUIDOSO        CLOUDY    30   9  40 W6        30.31S WCI  24
SANTA FE       CLOUDY    25  12  58 N12       30.29F WCI  14
TRUTH OR CONSE PTCLDY    32   4  30 NW7       30.29F WCI  26
TUCUMCARI      CLOUDY    28  13  53 SW3       30.27S
$$



USA.gov is the U.S. government's official web portal to all federal, state and local government web resources and services.